Overview Statistics Trail Chart Weather Telemetry Raw packets
 

This is the latest recevied weather packets stored in our database for station/object K2CAT. If no packets are shown the sender has not sent any weather packets the latest 10 day(s).

<< 36 37 38 39 40 41 42 >>
Time Temp. Humidity Pressure Rain* Wind** Luminosity Snow
1777462327 12.22° C 67% 1015.9 hPa 0 mm - 55 W/m² -
1777462023 11.67° C 69% 1016.1 hPa 0 mm - 61 W/m² -
1777461720 11.67° C 70% 1016.1 hPa 0 mm - 65 W/m² -
1777461415 11.11° C 70% 1016.4 hPa 0 mm - 62 W/m² -
1777461112 11.11° C 69% 1016.1 hPa 0 mm - 36 W/m² -
1777460807 11.11° C 70% 1016 hPa 0 mm - 30 W/m² -
1777460503 11.67° C 70% 1016.3 hPa 0 mm - 35 W/m² -
1777460199 11.11° C 70% 1016 hPa 0 mm - 29 W/m² -
1777459896 11.11° C 70% 1015.8 hPa 0 mm - 28 W/m² -
1777459593 11.11° C 69% 1015.9 hPa 0 mm - 23 W/m² -
1777459290 11.11° C 69% 1016.4 hPa 0 mm - 20 W/m² -
1777458989 11.11° C 69% 1016.3 hPa 0 mm - 19 W/m² -
1777458685 11.11° C 69% 1016.2 hPa 0 mm - 13 W/m² -
1777458381 11.11° C 69% 1016.1 hPa 0 mm - 12 W/m² -
1777458077 11.11° C 68% 1016 hPa 0 mm - 10 W/m² -
1777457773 11.11° C 69% 1015.9 hPa 0 mm - 8 W/m² -
1777457473 11.11° C 69% 1016.1 hPa 0 mm - 6 W/m² -
1777457169 11.11° C 69% 1015.9 hPa 0 mm - 3 W/m² -
1777456865 11.11° C 69% 1016.1 hPa 0 mm - 2 W/m² -
1777456560 11.11° C 68% 1016.2 hPa 0 mm - 1 W/m² -
1777456255 11.11° C 68% 1016.2 hPa 0 mm - 1 W/m² -
1777455951 11.11° C 68% 1016.1 hPa 0 mm - 0 W/m² -
1777455649 11.11° C 69% 1016 hPa 0 mm - 0 W/m² -
1777455345 11.11° C 69% 1016.1 hPa 0 mm - 0 W/m² -
1777455043 11.11° C 69% 1016.2 hPa 0 mm - 0 W/m² -

* Rain latest hour (hover to see other rain measurements)
** Current wind speed in m/s (hover to see current wind gust speed)